PILOTS ONLINE: 394    ATC ONLINE: 59

CYSK

Sanikiluaq Airport

Location

IATA YSK
City Sanikiluaq
Country  Canada
Latitude 56° 32' 16" N
Longitude 79° 14' 48" W
Elevation 104 ft
Type Medium Airport

Map

Weather

METAR
2014/09/02 21:00
CYSK 022100Z 26029G37KT 8SM OVC005 08/07 A2922 RMK SF8 BLN ESTD PRESRR SLP898
TAF
No TAF available

Runways

09/27 3800 ft / 0 ft

Outbound flights

Callsign Flying to Pilot ATD/STD ETA Aircraft

Inbound flights

Callsign Flying from Pilot ATD ETA Aircraft